Regional Weather Roundup
Issued by NWS Northern Indiana

Home | Current Version | Previous Version | Graphics & Text | Print | Product List | Glossary On
Versions: 1 2 3 4 5 6 7 8 9 10 11 12 13 14 15 16 17 18 19 20 21 22 23 24 25 26 27 28 29 30 31 32 33 34 35 36 37 38 39 40 41 42 43 44 45 46 47 48 49 50
000
ASUS43 KIWX 080310
RWRIWX

KIWX WEATHER ROUNDUP
NATIONAL WEATHER SERVICE NORTHERN INDIANA
1000 PM EST WED DEC 07 2016

NOTE: "FAIR" INDICATES FEW OR NO CLOUDS BELOW 12,000 FEET WITH NO
SIGNIFICANT WEATHER AND/OR OBSTRUCTIONS TO VISIBILITY.

* THESE STATIONS ARE NOT UNDER NWS QUALITY CONTROL. THEY ALSO MAY NOT
  REPORT WEATHER SUCH AS PRECIPITATION OR FOG.

INZ001>027-080400-
NORTHERN INDIANA

CITY           SKY/WX    TMP DP  RH WIND       PRES   REMARKS
GARY*          CLOUDY    27  18  69 W22G35    30.16R WCI  12
VALPARAISO     MOCLDY    25  17  72 W21G29    30.14R WCI  11
MICHIGAN CITY* CLOUDY    28  19  69 W15G22    30.13S WCI  17
LAPORTE*       PTCLDY    24  17  73 W9G23     30.13S WCI  14
KNOX*          PTCLDY    27   5  39 W15G23    30.15R WCI  15
SOUTH BEND     CLOUDY    26  19  74 W14       30.12R WCI  14
GOSHEN         CLOUDY    27  19  72 W20G28    30.11R WCI  13
MONTICELLO*    CLEAR     27  17  66 W13G18    30.17R WCI  16
LOGANSPORT*    CLEAR     28  21  74 W12G21    30.16S WCI  18
ROCHESTER*     CLEAR     30  25  80 W12G18    30.13S WCI  21
WARSAW*        MOCLDY    27  19  74 W12G20    30.12R WCI  16
ANGOLA*        CLOUDY    27  21  80 W12       30.06S WCI  16
FORT WAYNE     PTCLDY    29  22  75 W17G23    30.11R WCI  17
HUNTINGTON*    PTCLDY    28  23  81 W13G18    30.12S WCI  17
PERU/GRISSOM   PTCLDY    28  22  76 W13       30.14R WCI  17
MARION*        MOCLDY    29  24  81 W14       30.15S WCI  18

$$
INZ028>050-080400-
CENTRAL INDIANA

CITY           SKY/WX    TMP DP  RH WIND       PRES   REMARKS
LAFAYETTE      PTCLDY    27  20  75 W12       30.18S WCI  17
KOKOMO*        MOCLDY    29  24  82 W18       30.15F WCI  16
MUNCIE*        PTCLDY    30  24  78 W12       30.14F WCI  20
INDIANAPOLIS   PTCLDY    29  21  72 W9        30.18S WCI  20

$$
MIZ043>046-050>051-056>058-064>065-071>073-077>080-080400-
SOUTHWEST LOWER MICHIGAN

CITY           SKY/WX    TMP DP  RH WIND       PRES   REMARKS
BATTLE CREEK   CLOUDY    30  22  72 W14       30.04R WCI  19
BENTON HARBOR  CLOUDY    29  20  69 W22       30.10R WCI  15
COLDWATER*     CLOUDY    28  21  74 W15       30.05S WCI  17
HILLSDALE*     CLOUDY    28  21  74 W17       30.02S WCI  16
HOLLAND        CLOUDY    30  22  72 W21G28    30.05S WCI  17
GRAND RAPIDS   CLOUDY    30  20  66 W21G32    30.02R WCI  17
KALAMAZOO      CLOUDY    30  18  60 W16G25    30.05S WCI  19
STURGIS*       CLOUDY    27  19  72 W12G23    30.07R WCI  17
THREE RIVERS*  CLOUDY    29  20  71 W9G16     30.07S WCI  20

$$
OHZ001>008-015>018-024>025-080400-
NORTHWEST OHIO

CITY           SKY/WX    TMP DP  RH WIND       PRES   REMARKS
WAUSEON*       FAIR      30  23  74 W16G23    30.06R WCI  19
DEFIANCE       PTCLDY    31  22  69 W8        30.10R WCI  23
FINDLAY        CLOUDY    31  23  72 W16       30.08R WCI  20
TOLEDO EXPRESS CLEAR     29  24  82 W10       30.06S WCI  20
TOLEDO METCALF PTCLDY    31  24  75 W10       30.07S WCI  22
LIMA           CLOUDY    30  25  81 W15       30.10R WCI  19

$$
AND FOR LAKE MICHIGAN COASTAL AND OPEN LAKE BUOY OBSERVATIONS

STATION/POSITION TEMP    WIND        PRES    VSBY  WAVE
                 AIR SEA DIR/SP/G                  HT/PER
                 (F)     (DEG/KT/KT) (MB)    (MI)  (FT/S)
CALUMET HARBOR    24     260/  9/ 19 1020.2R
MICHIGAN CITY     27     240/ 29/ 33   N/A
BURNS HARBOR      28     270/ 22/ 27 1021.0R
SAINT JOSEPH      31     260/ 18/ 23 1019.6

$$
&&



USA.gov is the U.S. government's official web portal to all federal, state and local government web resources and services.